EHI
11 18 24 21 14 10 8 6 5 5 4 1 1 1 1 0 0 0 0 0 0 0 0 0 1 1 1 0 0 0 0 0 0 0 0 0 0 0 0 0 0 0 0
12 18 24 23 17 13 10 8 6 5 5 3 1 0 0 0 0 0 0 0 0 0 0 1 2 2 1 0 0 0 0 0 0 0 0 0 0 0 0 0 0 0 0
12 17 21 23 22 17 14 11 8 5 4 3 1 0 0 1 1 0 0 0 0 0 0 1 2 2 1 0 0 0 0 0 0 0 0 0 0 0 0 0 0 0 0
11 14 18 23 23 18 15 13 10 6 3 1 1 0 0 1 1 1 1 1 0 0 1 2 2 1 0 0 0 0 0 0 0 0 0 0 0 0 0 0 0 0 0
9 12 17 22 22 17 13 11 10 7 3 0 0 0 0 0 1 2 2 2 1 1 2 2 1 0 0 0 0 0 0 0 0 0 0 0 0 0 0 0 0 0 0
9 10 15 19 19 16 13 10 9 6 2 0 0 0 0 0 2 3 3 3 2 2 2 2 1 0 0 0 0 0 0 0 0 0 0 0 0 0 0 0 0 0 0
9 9 13 17 19 17 13 9 7 5 2 1 1 0 0 0 1 2 2 3 3 1 1 2 1 0 0 0 0 0 0 0 0 0 0 0 0 0 0 0 0 0 0
8 9 12 17 18 16 13 9 6 5 4 3 2 1 0 0 0 0 2 3 2 1 1 2 1 0 0 0 0 0 0 0 0 0 0 0 0 0 0 0 0 0 0
8 8 10 12 12 11 9 8 5 5 6 5 2 1 0 0 0 0 1 2 1 1 1 2 1 1 1 1 0 0 0 0 0 0 0 0 0 0 0 0 0 0 0
9 8 9 8 7 6 6 4 3 3 4 3 1 0 0 0 0 0 1 1 1 1 1 1 1 2 2 1 0 0 0 0 0 0 0 0 0 0 0 0 0 0 0
10 9 9 9 8 6 3 1 1 2 3 2 1 0 0 0 0 0 0 0 0 0 0 0 1 1 1 1 0 0 0 0 0 0 0 0 0 0 0 0 0 0 0
12 10 9 9 9 8 5 3 2 3 3 2 1 1 1 1 1 0 0 0 0 0 0 0 0 0 0 0 0 0 0 0 0 0 0 0 0 0 0 0 0 0 0
11 11 9 8 9 11 11 8 6 6 5 3 1 1 2 3 2 1 1 0 0 0 0 0 1 0 0 0 0 0 0 0 0 0 0 0 0 0 0 0 0 0 0
10 10 10 8 8 12 13 12 11 10 8 4 1 0 1 3 3 3 2 1 0 0 0 1 2 1 0 0 0 0 0 0 0 0 0 0 0 0 0 0 0 0 0
6 7 8 6 6 9 12 13 13 12 10 5 1 0 0 1 2 2 2 2 1 0 0 1 2 1 0 0 0 0 0 0 0 0 0 0 0 0 0 0 0 0 0
4 5 5 3 3 5 8 10 11 12 10 6 3 1 0 0 1 1 1 3 2 1 0 1 1 1 0 0 0 0 0 0 0 0 0 0 0 0 0 0 0 0 0
3 3 3 1 0 2 4 7 8 8 7 5 2 1 0 0 0 0 1 2 2 1 1 1 0 0 0 0 0 0 0 0 0 0 0 0 0 0 0 0 0 0 0
3 3 3 1 0 1 3 4 5 4 2 2 1 0 0 0 0 0 1 2 2 2 1 0 0 0 0 0 0 0 0 0 0 0 0 0 0 0 0 0 0 0 0
3 3 3 2 1 1 2 4 3 1 0 0 0 0 0 0 0 0 0 1 3 2 1 0 0 0 0 0 0 0 0 0 0 0 0 0 0 0 0 0 0 0 0
3 3 3 3 1 1 2 3 2 1 0 0 0 0 0 0 0 0 0 1 2 2 1 0 0 0 0 0 0 0 0 0 0 0 0 0 0 0 0 0 0 0 0
3 3 3 3 2 2 2 3 1 0 0 0 0 0 0 0 0 0 0 1 1 1 0 0 0 0 0 0 0 0 0 0 0 0 0 0 0 0 0 0 0 0 0
1 2 3 3 3 3 3 3 1 0 0 0 0 0 0 0 0 0 0 1 1 0 0 0 0 0 0 0 0 0 0 0 0 0 0 0 0 0 0 0 0 0 0
1 1 2 2 2 3 3 3 2 1 1 0 0 0 0 0 0 0 0 1 0 0 0 0 0 0 0 0 0 0 0 0 0 0 0 0 0 0 0 0 0 0 0
1 1 1 1 1 1 2 2 2 2 1 0 0 0 0 0 0 0 0 0 0 0 0 0 0 0 0 0 0 0 0 0 0 0 0 0 0 0 0 0 0 0 0
1 0 0 0 0 0 1 1 1 1 1 0 0 0 0 0 0 0 0 0 0 0 0 0 0 0 0 0 0 0 0 0 0 0 0 0 0 0 0 0 0 0 0
0 0 0 0 0 0 0 0 0 0 0 0 0 0 0 0 0 0 0 0 0 0 0 0 0 0 0 0 0 0 0 0 0 0 0 0 0 0 0 0 0 0 0
Wind_Speed
6 7 7 6 7 8 8 8 8 7 7 8 8 8 8 8 8 7 7 7 7 7 8 9 9 9 10 10 10 11 11 11 11 11 10 10 11 11 11 9 8 11 13
8 9 8 7 8 8 8 8 8 7 7 7 7 7 8 8 8 7 7 6 6 7 7 8 8 9 9 9 10 10 11 11 10 9 7 9 9 10 10 9 8 9 12
8 9 9 7 8 8 8 8 8 7 7 7 7 7 7 7 7 7 6 6 6 6 7 8 8 9 9 9 10 10 10 10 9 6 4 7 10 10 10 10 10 11 11
8 8 8 8 8 8 7 7 7 7 7 6 6 6 6 7 7 6 6 6 6 6 6 7 8 8 9 9 10 10 10 9 7 3 4 7 8 10 10 10 10 10 11
8 8 8 7 8 7 7 7 7 6 6 6 5 5 6 6 6 6 6 6 6 6 6 7 8 8 8 9 9 9 9 8 5 4 6 6 7 9 10 10 9 10 10
8 7 8 6 7 7 6 6 6 6 6 6 5 5 5 5 5 6 6 6 6 6 6 7 8 8 8 8 9 9 8 6 5 5 5 6 6 9 9 9 8 9 9
7 6 7 6 6 6 5 5 5 5 5 5 5 5 5 5 5 6 6 6 6 6 7 7 8 8 8 8 8 8 7 3 4 5 5 5 6 8 8 8 7 8 8
6 5 6 6 5 5 5 5 5 5 4 5 5 5 5 5 5 5 6 6 6 6 6 7 7 8 8 8 8 7 6 3 4 5 5 5 6 6 7 7 7 7 7
5 5 5 5 5 5 5 5 4 4 3 4 4 4 4 4 4 5 6 6 6 6 6 6 7 8 8 8 7 7 5 1 3 3 4 4 6 6 6 6 6 6 6
5 4 5 4 4 5 5 5 4 4 3 3 4 3 3 4 4 4 5 5 5 5 5 6 7 7 7 7 7 7 4 2 3 4 3 4 5 5 5 5 5 5 6
5 4 4 5 4 4 4 4 4 4 3 3 3 4 3 3 4 4 4 4 4 5 5 5 6 6 6 7 6 5 4 3 4 2 2 5 4 5 5 4 5 5 5
7 6 5 5 4 4 3 4 3 3 3 3 3 4 3 3 3 3 5 4 4 4 4 5 5 5 4 4 5 5 3 3 3 2 3 5 3 4 4 4 4 4 4
7 6 5 5 5 4 3 3 2 2 2 2 3 3 3 2 2 3 3 3 3 4 3 4 4 3 3 3 3 3 3 2 2 2 3 4 3 3 4 4 4 4 4
7 7 6 5 5 4 3 3 3 2 2 2 2 3 3 2 2 2 2 2 2 2 2 2 2 3 3 4 4 4 4 2 2 2 3 4 2 2 3 4 4 4 4
7 7 6 6 6 5 4 3 3 2 2 2 2 2 2 2 3 2 2 2 2 2 2 2 2 3 3 3 3 4 4 4 3 3 3 4 2 2 2 3 3 3 4
8 7 6 6 6 6 5 4 3 3 2 2 2 3 3 2 2 2 2 2 2 2 2 2 3 3 3 3 3 3 3 3 3 3 2 4 3 2 1 2 2 3 4
8 7 7 6 6 6 6 5 4 3 3 3 2 3 3 2 2 2 2 2 2 2 2 2 3 2 2 3 3 3 3 3 3 3 2 1 3 3 2 2 2 2 3
7 7 7 5 6 6 5 5 3 3 3 3 2 3 3 3 3 2 2 2 2 2 2 3 3 3 3 3 3 3 3 2 3 2 2 2 2 2 2 1 1 1 2
6 6 6 6 6 5 5 4 3 3 3 3 3 2 3 3 3 3 2 2 2 2 3 3 3 3 3 3 2 2 2 2 2 2 2 2 2 2 2 2 2 0 1
4 5 5 5 5 5 4 3 3 3 3 2 2 2 3 3 3 3 2 3 3 2 3 3 3 3 3 3 2 2 1 1 2 2 3 2 2 2 2 2 2 2 2
3 4 4 5 5 4 4 4 3 3 3 2 2 3 4 3 4 3 3 3 3 3 3 4 3 4 3 2 2 2 1 1 1 2 2 2 3 3 2 2 2 2 2
3 4 4 5 5 5 4 4 3 3 3 3 2 3 3 4 4 3 4 3 4 3 4 4 4 3 2 3 2 2 2 3 3 2 2 2 2 2 2 2 2 2 2
2 3 4 5 5 5 4 3 3 3 3 3 3 3 3 4 4 4 4 4 4 4 4 4 4 5 4 3 2 2 3 3 2 2 3 2 2 2 2 2 2 2 2
2 2 3 4 5 5 5 4 5 4 4 3 3 3 3 4 4 4 4 4 4 4 4 5 5 4 5 4 3 2 2 1 2 2 3 3 3 3 2 2 2 2 2
2 1 2 3 4 5 5 5 5 4 3 3 3 4 3 3 3 3 3 4 4 4 5 5 5 5 5 5 4 3 2 2 3 3 3 3 3 3 2 3 3 2 2
3 1 1 2 2 4 5 5 5 5 4 4 4 4 3 3 3 4 3 4 4 4 4 5 5 6 5 6 4 4 4 4 4 4 4 3 3 2 2 3 3 3 2
Wind_Direction
156 152 145 151 140 133 130 127 121 119 115 115 117 120 125 124 122 120 118 116 114 113 116 114 114 112 107 103 104 105 101 98 93 90 90 92 98 98 96 96 98 92 89
152 152 144 147 140 134 131 128 121 114 115 115 117 119 124 123 122 120 121 121 120 117 117 116 117 115 109 107 107 107 104 100 96 92 97 103 99 99 97 85 73 89 93
153 152 150 142 137 133 129 126 124 120 115 115 116 119 123 126 123 122 123 126 126 122 120 119 113 114 111 111 110 109 109 106 102 101 139 118 109 105 102 96 92 96 95
153 152 148 137 138 134 130 127 125 124 122 120 117 120 123 127 125 124 121 127 128 128 121 115 111 112 114 114 114 112 113 111 108 145 128 106 110 108 109 104 102 99 97
153 152 138 136 137 133 131 129 127 126 125 124 122 122 124 124 123 126 120 118 118 119 119 120 118 115 115 115 116 114 114 116 126 151 107 105 105 108 107 104 101 102 101
152 153 139 137 135 131 129 130 126 127 128 128 127 123 124 122 120 121 118 114 114 117 119 120 121 119 118 116 116 116 118 126 162 124 118 115 110 109 112 109 106 106 104
152 152 146 140 136 132 130 129 127 125 129 130 126 123 122 120 116 114 111 109 113 119 124 121 121 119 118 119 117 118 115 126 141 119 117 114 104 112 117 118 114 112 110
152 152 145 130 129 131 128 126 125 124 126 128 127 123 116 117 118 117 114 112 115 119 123 128 128 126 125 123 118 113 113 144 138 124 121 114 100 112 115 117 116 115 113
154 154 148 149 142 133 128 127 127 123 117 122 122 118 109 107 113 119 118 120 118 118 116 125 128 126 126 122 118 114 107 116 149 122 120 111 106 113 115 112 115 115 115
162 163 159 159 159 157 151 130 127 118 111 113 117 113 110 116 116 115 126 117 117 114 115 120 126 130 126 120 117 116 119 182 143 130 127 107 109 119 116 117 120 121 117
177 179 175 172 168 164 160 141 141 126 112 128 138 125 152 169 159 148 123 106 111 113 112 118 128 131 132 125 118 125 159 172 144 130 116 98 120 129 124 120 126 126 129
191 187 186 183 175 171 167 162 163 158 151 170 168 167 180 179 160 152 119 120 121 123 123 114 121 141 161 152 141 161 176 169 150 137 101 95 127 132 127 125 120 123 129
197 193 191 189 184 179 170 170 165 170 163 172 173 177 178 175 160 161 158 153 158 158 157 143 163 176 173 162 162 173 173 168 161 139 106 97 129 143 143 137 130 129 128
202 200 196 192 189 187 186 178 176 174 169 169 174 187 186 176 177 170 172 171 171 172 170 179 184 180 176 174 174 172 168 172 170 151 105 101 130 150 146 141 139 142 143
210 205 201 195 194 190 190 191 184 180 178 170 180 189 200 188 181 175 174 177 179 175 179 183 189 184 180 177 178 178 175 174 179 172 132 112 119 145 156 153 150 155 152
218 211 202 199 198 194 194 194 189 183 179 181 183 183 197 198 187 180 177 177 180 186 184 187 187 184 182 178 177 182 181 180 180 175 162 137 127 122 152 180 185 177 166
221 214 205 201 197 197 198 200 195 184 184 187 186 186 189 192 192 186 183 183 179 183 182 183 180 179 177 174 177 183 182 186 178 174 175 176 159 154 169 203 212 197 184
220 212 204 200 198 200 198 199 197 191 189 191 188 187 188 189 191 188 183 187 179 178 177 181 178 174 175 178 177 177 183 179 186 185 180 181 193 191 171 183 237 221 210
216 207 202 201 201 198 194 194 195 193 196 193 189 189 189 192 192 187 186 187 188 181 178 181 180 177 178 176 175 172 185 189 190 194 196 194 199 213 211 157 165 212 233
213 207 206 201 201 196 191 188 187 186 193 192 192 190 189 189 191 189 186 189 192 188 182 181 173 171 177 173 168 167 174 198 204 206 211 210 206 214 230 237 209 194 207
208 206 206 203 198 193 193 191 188 190 191 189 191 191 193 190 190 189 186 187 194 199 197 185 175 166 168 167 170 172 178 205 216 220 220 216 208 214 223 235 247 246 207
217 212 209 205 200 201 200 194 192 184 195 197 191 191 196 193 190 191 189 191 194 197 194 187 181 179 174 185 193 188 193 198 203 216 226 223 220 216 226 235 238 244 250
228 222 215 209 204 204 193 181 174 171 179 188 193 197 204 201 195 193 196 195 195 198 198 194 197 195 187 191 213 215 202 210 191 190 216 227 229 221 222 230 240 240 233
261 239 226 213 207 197 187 186 183 192 198 202 195 194 197 204 204 200 201 201 200 205 205 200 202 204 199 195 199 239 274 261 207 190 196 213 225 229 234 232 235 236 232
297 254 233 213 211 196 192 191 191 202 206 193 187 189 191 195 199 203 206 204 206 211 213 208 203 206 206 205 201 200 211 237 245 226 217 210 218 223 230 231 234 235 235
349 327 267 208 219 202 196 197 198 201 199 191 189 189 190 191 195 200 205 210 211 212 213 212 211 209 211 209 209 211 211 212 213 225 230 226 233 236 237 234 230 230 238